CYGFM07

Last updated on Wed Sep 17 2025 00:02:22 GMT+0000 (Coordinated Universal Time)

1 41890U 16078G 25259.25263003 .00019965 00000+0 40638-3 0 9991 2 41890 34.9470 232.9978 0007481 130.3486 229.7889 15.45302951486396
UTC large
Height (km)
Speed (km/s)
/
Latitude / Longitude
Inclination (degrees)
Orbital Period (minutes)
Azimuth
Elevation
Range (km)
Doppler Factor

Next 0 passes for location: London (51.5072 / 0.1276)

Sorry there are no passes over London.